Wind_Speed
17 18 22 22 19 9 4 11 14 10 9 5 11 22 31 32 26 26 26 25 20 15 13 11 7 7 8 6 8 10 12 12 8 14 16 19 18 20 17 13 13 11 8 10
12 18 23 20 19 11 13 12 8 3 6 7 5 16 27 28 30 32 25 28 26 24 19 15 11 6 5 10 10 10 10 13 13 14 22 14 16 19 17 17 12 9 9 19
17 16 11 14 19 5 8 8 7 6 6 10 10 9 24 33 33 35 24 30 28 26 22 18 12 7 5 7 10 11 12 13 12 13 14 15 15 17 15 13 15 15 13 14
12 15 10 11 15 10 8 5 4 6 15 6 12 5 10 30 31 32 23 32 31 30 25 23 16 13 5 5 7 11 15 13 11 10 11 11 13 12 15 12 13 14 16 16
13 11 10 10 12 8 9 4 5 6 8 8 12 3 8 25 37 42 35 36 34 33 29 25 20 13 8 6 6 10 11 13 12 11 12 12 16 17 14 12 9 10 14 14
19 16 12 11 11 14 18 6 3 5 6 4 17 5 5 25 19 40 36 40 37 34 29 27 23 16 17 12 9 7 11 11 13 12 13 14 12 10 12 10 10 13 14 17
15 15 13 10 13 22 10 7 2 1 1 2 10 4 6 10 24 27 41 39 37 36 35 32 26 22 22 15 12 8 12 11 14 12 12 13 13 12 12 11 11 10 11 12
7 5 5 10 21 17 12 12 9 5 4 4 10 7 5 15 11 18 23 38 39 40 36 31 28 28 22 18 18 13 12 13 14 14 13 12 11 9 13 15 12 11 11 13
5 8 7 8 12 17 15 20 14 10 8 1 8 5 4 3 4 7 16 16 34 39 37 43 39 31 26 24 19 14 16 15 14 12 13 13 13 10 9 10 11 12 12 13
10 9 6 12 13 15 16 16 5 9 3 4 6 14 6 11 12 17 10 14 21 29 37 38 41 33 29 21 21 17 18 16 14 15 13 13 14 12 10 10 9 9 11 8
10 5 4 8 17 19 18 13 5 5 5 5 3 4 10 10 8 4 11 18 19 17 30 34 40 30 32 31 28 18 21 19 16 17 17 16 15 14 11 11 10 8 6 7
9 1 9 3 4 10 7 1 5 9 10 6 3 5 16 15 15 18 13 9 20 15 16 22 31 36 31 27 29 24 24 21 20 18 20 18 18 18 15 13 12 11 12 9
4 10 5 3 6 8 9 7 5 6 10 20 2 5 16 14 12 14 11 12 19 18 15 17 25 33 34 29 27 27 20 25 20 21 23 20 20 21 18 17 16 15 13 13
9 6 8 7 5 8 6 13 13 17 8 1 4 14 16 9 4 3 5 10 12 20 25 24 25 29 31 36 32 27 25 27 35 28 24 21 21 19 17 17 17 17 16 15
9 9 3 7 7 4 2 17 19 17 7 4 11 23 12 6 1 6 7 7 6 14 20 20 26 25 28 34 33 29 26 28 26 26 24 21 25 22 20 19 18 16 16 17
5 7 5 4 3 4 4 18 16 14 14 20 18 19 15 10 8 1 4 7 10 16 20 25 23 27 27 31 28 28 25 28 26 40 30 27 24 19 20 20 19 18 18 18
9 6 2 1 7 5 8 20 12 19 17 7 12 15 11 10 6 4 6 10 13 7 26 29 23 25 31 29 29 22 25 19 22 33 38 27 29 20 17 18 20 19 19 20
2 1 5 4 2 5 10 10 10 12 13 12 12 10 5 1 2 3 4 5 4 5 3 11 20 27 30 28 23 23 25 20 20 14 32 36 29 22 22 22 26 25 24 25
3 1 4 2 4 6 4 8 10 9 5 10 6 12 13 10 8 3 5 6 1 2 1 5 4 10 3 11 10 11 6 9 10 10 12 13 11 19 20 20 23 26 27 29
4 8 5 4 1 2 3 5 5 7 9 1 4 5 13 8 5 4 4 3 3 2 4 5 9 7 4 3 2 4 4 9 14 15 18 18 18 19 21 25 26 26 28 29
4 3 4 4 2 3 5 4 3 10 6 4 4 3 4 5 4 6 8 12 13 12 8 9 12 10 7 9 12 14 15 17 18 19 19 19 21 23 24 22 24 25 24 19
6 3 2 0 1 4 5 5 7 10 8 5 8 9 5 5 3 1 2 4 8 11 15 12 13 17 14 12 11 13 16 18 21 21 21 21 21 20 18 18 18 16 16 17
2 3 3 3 5 7 7 6 6 10 11 13 11 8 6 5 3 5 6 3 4 6 10 12 14 14 14 12 10 9 11 14 17 17 14 13 14 15 14 14 13 13 14 16
7 8 7 9 11 9 8 9 11 15 14 17 12 7 5 5 9 11 11 11 10 9 8 10 12 12 14 14 14 14 14 14 15 15 15 16 18 19 20 19 19 16 16 17
10 13 15 17 15 12 12 14 15 16 19 20 17 7 7 7 7 8 10 12 9 8 8 8 9 10 10 11 11 11 10 10 9 13 17 18 26 19 28 23 20 21 21 17
15 14 15 16 15 12 12 10 21 22 18 20 13 9 8 8 8 6 5 8 8 9 8 7 4 5 5 6 9 10 11 9 11 11 14 17 20 27 20 26 22 28 27 23
Wind_Direction
179 204 203 189 199 212 189 289 240 211 203 229 201 198 180 181 172 173 190 195 202 220 235 232 245 278 236 218 227 189 164 152 158 173 173 181 171 162 178 168 174 169 180 181
201 226 202 197 207 220 278 247 269 169 240 186 202 180 188 184 185 191 197 203 193 208 211 222 237 276 248 237 219 221 174 168 162 169 175 188 165 172 175 183 168 175 149 167
211 205 192 219 205 229 220 305 190 212 237 192 197 200 202 198 197 204 203 204 213 215 219 217 229 226 210 253 222 220 194 186 183 171 182 182 184 177 183 193 169 180 184 188
230 188 211 200 216 237 213 109 126 201 188 188 187 150 207 207 203 200 199 199 205 214 226 225 217 215 253 237 207 201 207 198 191 190 189 177 166 167 175 184 190 185 183 186
227 217 215 237 207 253 204 136 320 152 186 142 186 118 283 217 211 204 203 200 208 223 229 237 221 195 214 204 175 195 215 203 195 196 196 185 176 178 187 197 197 196 180 180
238 227 245 226 232 202 156 161 127 144 160 134 170 208 238 198 215 210 210 209 209 216 224 223 222 196 201 194 186 206 215 208 196 189 191 198 188 194 189 196 186 191 176 190
251 244 234 270 230 183 197 156 221 340 303 242 175 264 260 267 246 224 219 214 213 224 221 228 222 207 212 209 194 209 204 212 207 192 193 199 209 207 202 195 202 201 191 186
296 284 236 188 172 173 178 190 213 175 177 157 187 236 246 288 280 243 241 225 215 215 224 227 236 232 211 218 204 194 207 204 217 215 206 198 199 204 200 194 195 203 202 205
297 255 215 197 192 189 186 212 232 240 226 4 182 140 228 150 4 233 243 222 217 217 228 224 233 231 227 223 210 204 212 207 209 214 218 207 205 194 200 208 204 205 209 207
260 300 265 251 221 210 203 195 177 191 154 218 191 161 211 147 213 240 270 262 228 221 223 219 222 227 231 215 216 210 210 220 212 217 219 221 209 200 203 209 225 217 213 213
227 280 303 239 205 214 213 228 229 258 236 177 171 206 177 208 218 189 244 277 252 221 227 221 213 214 226 226 208 223 220 222 235 223 217 221 224 214 214 218 225 212 217 213
135 164 328 299 31 208 192 225 266 260 261 278 301 169 139 150 189 204 239 243 201 222 230 221 213 219 224 228 215 236 234 222 221 226 221 215 224 226 216 225 227 224 217 219
129 34 348 145 131 162 166 64 60 344 318 269 163 175 156 161 206 218 236 240 198 204 217 221 211 216 218 224 233 232 233 220 225 234 227 214 219 226 222 224 231 229 228 223
140 103 47 61 25 322 25 43 33 13 5 329 224 181 162 179 183 350 300 239 212 227 226 218 212 221 225 229 236 232 240 236 238 225 229 222 224 221 225 225 225 228 232 230
111 121 44 52 50 0 31 22 23 10 3 216 152 154 154 155 177 176 238 241 280 273 235 233 233 228 227 230 230 229 234 232 252 218 221 224 226 213 217 222 226 227 227 232
69 86 156 148 31 224 106 44 48 77 83 125 145 148 140 135 122 141 269 288 290 272 240 229 229 225 219 224 226 226 232 235 247 227 215 217 216 212 216 221 221 223 228 232
67 80 134 35 355 155 85 66 66 85 72 133 131 121 112 119 91 64 335 298 280 232 216 197 187 214 218 224 237 219 216 240 244 197 214 219 219 207 212 232 247 241 231 233
16 92 68 2 345 61 87 139 224 47 56 76 85 94 105 56 264 291 223 261 173 155 249 254 240 208 212 220 220 219 227 224 218 237 208 220 199 216 233 251 250 249 248 247
191 102 99 79 34 124 131 86 149 200 83 77 66 96 102 106 84 128 141 133 133 233 316 2 197 243 235 215 203 208 217 213 219 214 222 247 255 239 246 248 257 257 253 254
91 132 166 110 118 137 147 149 130 169 199 65 124 114 122 153 160 136 108 79 111 44 283 264 264 277 285 229 212 232 209 239 232 237 254 249 247 248 256 264 269 264 261 254
293 27 89 69 130 148 200 217 324 180 174 225 204 186 119 137 147 213 295 300 296 283 254 256 264 263 266 245 242 235 236 234 230 242 246 243 244 251 254 254 262 264 252 240
296 274 280 46 149 200 199 181 217 172 173 246 254 271 306 10 1 319 284 237 271 277 268 257 247 258 254 241 242 241 237 240 243 243 246 248 249 247 256 261 266 259 244 257
260 253 241 255 249 246 248 248 246 215 218 218 248 278 270 288 263 308 299 274 294 300 279 268 244 244 250 245 243 245 246 248 245 237 249 246 242 247 256 267 264 264 240 209
268 271 273 275 268 260 244 249 240 220 234 249 242 274 303 285 277 284 264 263 272 279 277 268 271 256 251 255 259 259 260 258 260 259 258 250 250 251 262 263 266 257 242 224
257 264 271 272 280 281 260 240 241 241 241 249 253 250 293 297 297 287 267 252 249 259 257 254 246 248 241 239 239 242 251 258 270 237 258 246 249 259 262 248 266 245 236 230
267 255 264 273 282 279 299 245 221 222 244 245 247 246 260 276 286 301 270 250 245 248 248 242 255 270 264 254 243 244 244 240 253 251 255 256 256 262 254 253 257 245 247 238
Height
3158 3159 3160 3165 3168 3171 3172 3172 3172 3172 3170 3175 3179 3181 3184 3186 3189 3191 3193 3195 3199 3202 3204 3205 3207 3211 3213 3215 3216 3218 3219 3218 3220 3221 3223 3226 3228 3229 3231 3234 3236 3237 3236 3238
3157 3156 3161 3165 3167 3171 3173 3173 3174 3173 3172 3175 3175 3179 3183 3184 3188 3189 3191 3192 3196 3199 3201 3205 3207 3210 3212 3215 3217 3217 3220 3219 3220 3222 3224 3226 3229 3230 3232 3235 3235 3236 3237 3240
3154 3156 3160 3163 3167 3170 3171 3170 3171 3174 3173 3175 3176 3176 3180 3183 3185 3187 3189 3192 3194 3197 3200 3202 3207 3209 3212 3214 3216 3217 3219 3220 3221 3223 3224 3225 3227 3231 3233 3234 3236 3238 3239 3241
3153 3154 3156 3160 3164 3168 3168 3170 3171 3170 3170 3173 3173 3177 3178 3181 3183 3185 3187 3189 3192 3195 3198 3202 3205 3208 3211 3213 3214 3216 3218 3220 3221 3223 3224 3227 3229 3231 3233 3234 3235 3237 3239 3241
3151 3152 3155 3157 3162 3164 3165 3163 3170 3167 3169 3170 3173 3176 3170 3177 3178 3180 3183 3187 3191 3194 3198 3201 3204 3207 3210 3212 3214 3216 3218 3220 3221 3222 3224 3226 3228 3229 3231 3233 3235 3236 3237 3240
3145 3149 3153 3155 3160 3162 3164 3165 3171 3170 3171 3171 3171 3170 3167 3167 3163 3176 3181 3183 3187 3192 3194 3198 3203 3205 3208 3209 3212 3215 3216 3218 3220 3222 3223 3226 3227 3229 3231 3233 3234 3236 3237 3239
3146 3146 3148 3153 3154 3159 3163 3165 3172 3172 3172 3170 3171 3170 3167 3167 3170 3173 3175 3181 3183 3188 3192 3196 3199 3203 3207 3208 3210 3213 3215 3217 3219 3222 3223 3226 3228 3229 3231 3232 3234 3236 3237 3238
3147 3147 3148 3150 3151 3155 3161 3168 3166 3171 3171 3169 3171 3168 3165 3163 3164 3167 3172 3176 3182 3186 3188 3192 3197 3200 3203 3206 3208 3211 3213 3215 3219 3221 3223 3225 3227 3229 3232 3232 3233 3234 3236 3238
3146 3145 3147 3148 3152 3154 3158 3162 3161 3162 3162 3165 3164 3167 3166 3161 3162 3165 3169 3173 3176 3181 3185 3189 3194 3196 3199 3203 3207 3210 3212 3214 3216 3219 3222 3224 3226 3227 3230 3232 3232 3234 3234 3235
3146 3145 3146 3146 3150 3151 3154 3158 3159 3159 3162 3164 3161 3163 3166 3162 3164 3164 3165 3169 3172 3176 3180 3184 3189 3193 3196 3201 3204 3207 3211 3213 3215 3218 3221 3223 3225 3227 3229 3230 3231 3233 3233 3234
3143 3145 3147 3145 3147 3149 3152 3155 3157 3157 3156 3155 3160 3160 3160 3161 3163 3164 3164 3163 3168 3171 3174 3178 3184 3190 3192 3197 3202 3205 3209 3210 3213 3216 3218 3220 3223 3225 3227 3228 3229 3231 3233 3234
3142 3144 3144 3145 3146 3148 3151 3152 3153 3153 3154 3154 3155 3159 3157 3159 3162 3160 3159 3158 3161 3166 3171 3175 3180 3185 3188 3194 3198 3200 3205 3206 3209 3213 3215 3217 3221 3223 3225 3226 3227 3229 3231 3232
3141 3143 3143 3143 3147 3146 3148 3151 3151 3150 3149 3149 3153 3156 3155 3156 3157 3160 3160 3160 3162 3162 3166 3172 3175 3179 3184 3189 3194 3197 3201 3203 3207 3210 3213 3213 3216 3219 3222 3223 3224 3226 3227 3229
3143 3145 3146 3146 3148 3149 3150 3151 3149 3150 3149 3148 3149 3150 3154 3156 3157 3159 3159 3160 3163 3167 3168 3171 3174 3175 3180 3186 3190 3193 3196 3199 3201 3205 3210 3211 3214 3216 3218 3220 3221 3223 3225 3226
3145 3145 3148 3147 3148 3149 3152 3150 3148 3148 3146 3146 3148 3151 3155 3157 3158 3158 3160 3162 3164 3165 3167 3169 3172 3173 3178 3182 3186 3190 3192 3193 3197 3198 3204 3207 3209 3211 3214 3216 3218 3220 3221 3223
3146 3147 3148 3149 3150 3150 3151 3149 3150 3149 3148 3147 3151 3153 3156 3157 3159 3160 3159 3160 3160 3159 3161 3167 3170 3171 3174 3179 3182 3185 3186 3189 3188 3192 3198 3203 3206 3206 3208 3211 3214 3215 3217 3218
3146 3147 3148 3149 3149 3147 3149 3153 3153 3153 3153 3154 3154 3156 3157 3158 3158 3160 3159 3156 3156 3152 3155 3156 3161 3165 3170 3174 3176 3179 3182 3184 3183 3187 3192 3197 3199 3200 3203 3206 3210 3212 3212 3214
3145 3146 3147 3148 3148 3151 3156 3151 3153 3157 3159 3159 3157 3157 3158 3159 3160 3159 3160 3159 3158 3157 3157 3156 3149 3158 3164 3169 3171 3173 3177 3179 3181 3183 3183 3191 3187 3194 3196 3199 3201 3202 3206 3208
3144 3145 3147 3149 3150 3153 3155 3155 3155 3157 3159 3159 3159 3159 3160 3161 3161 3160 3160 3160 3160 3161 3161 3159 3152 3163 3151 3154 3166 3170 3172 3174 3177 3179 3183 3184 3187 3191 3194 3195 3195 3197 3198 3200
3145 3145 3147 3148 3149 3151 3152 3153 3155 3154 3156 3158 3158 3159 3160 3161 3162 3161 3160 3161 3161 3160 3162 3162 3161 3164 3166 3167 3169 3169 3170 3173 3177 3179 3183 3185 3186 3187 3190 3191 3191 3192 3193 3194
3144 3145 3146 3147 3148 3150 3150 3151 3153 3155 3159 3155 3157 3158 3159 3160 3162 3161 3160 3159 3158 3159 3160 3161 3162 3161 3162 3167 3169 3169 3169 3171 3174 3177 3178 3180 3182 3185 3186 3187 3187 3186 3187 3187
3143 3144 3145 3146 3147 3150 3150 3150 3152 3152 3150 3153 3154 3154 3155 3156 3157 3157 3157 3157 3156 3155 3155 3155 3156 3159 3162 3163 3164 3165 3165 3166 3168 3169 3172 3175 3177 3178 3180 3182 3182 3181 3182 3183
3143 3144 3144 3145 3145 3145 3147 3148 3150 3149 3149 3149 3149 3151 3151 3153 3153 3154 3154 3154 3153 3153 3152 3153 3155 3156 3157 3158 3159 3160 3162 3164 3165 3166 3169 3171 3172 3174 3175 3176 3176 3177 3177 3179
3141 3141 3141 3142 3142 3142 3144 3145 3146 3146 3145 3147 3148 3149 3150 3149 3151 3151 3151 3151 3151 3152 3152 3151 3151 3150 3152 3152 3153 3154 3156 3158 3160 3162 3165 3168 3170 3171 3171 3171 3172 3172 3172 3175
3140 3139 3138 3138 3139 3139 3140 3142 3143 3143 3142 3144 3144 3146 3148 3147 3147 3148 3147 3148 3148 3149 3150 3150 3149 3149 3148 3149 3149 3149 3152 3154 3155 3157 3160 3162 3164 3165 3167 3166 3169 3169 3168 3171
3135 3134 3134 3133 3134 3134 3134 3133 3135 3138 3138 3139 3142 3142 3144 3144 3145 3145 3144 3145 3145 3146 3147 3147 3147 3147 3147 3147 3147 3147 3148 3150 3152 3154 3156 3156 3158 3158 3160 3160 3162 3165 3164 3165